TimePDT,TemperatureF,Dew PointF,Humidity,Sea Level PressureIn,VisibilityMPH,Wind Direction,Wind SpeedMPH,Gust SpeedMPH,PrecipitationIn,Events,Conditions,WindDirDegrees,DateUTC
12:53 AM,70.0,42.1,36,29.81,10.0,South,9.2,-,N/A,,Clear,190,2013-08-24 07:53:00
1:53 AM,68.0,42.1,39,29.82,10.0,South,9.2,-,N/A,,Clear,170,2013-08-24 08:53:00
2:53 AM,64.9,42.1,43,29.82,10.0,South,8.1,-,N/A,,Clear,190,2013-08-24 09:53:00
3:53 AM,64.9,42.1,43,29.83,10.0,South,10.4,-,N/A,,Clear,180,2013-08-24 10:53:00
4:53 AM,66.0,45.0,47,29.83,10.0,South,13.8,-,N/A,,Clear,190,2013-08-24 11:53:00
5:53 AM,64.9,46.0,50,29.83,10.0,South,10.4,-,N/A,,Clear,180,2013-08-24 12:53:00
6:53 AM,66.0,46.0,48,29.84,10.0,South,11.5,-,N/A,,Clear,190,2013-08-24 13:53:00
7:53 AM,68.0,48.0,49,29.85,10.0,SSW,10.4,-,N/A,,Clear,200,2013-08-24 14:53:00
8:53 AM,70.0,48.9,47,29.84,10.0,SW,10.4,-,N/A,,Clear,220,2013-08-24 15:53:00
9:53 AM,73.0,48.9,42,29.84,10.0,SSW,6.9,-,N/A,,Clear,200,2013-08-24 16:53:00
10:53 AM,75.9,48.0,37,29.84,10.0,SW,10.4,19.6,N/A,,Clear,230,2013-08-24 17:53:00
11:53 AM,77.0,46.0,33,29.83,10.0,South,6.9,-,N/A,,Clear,180,2013-08-24 18:53:00
12:53 PM,80.1,45.0,29,29.80,10.0,WSW,6.9,-,N/A,,Clear,250,2013-08-24 19:53:00
1:53 PM,81.0,43.0,26,29.79,10.0,South,8.1,-,N/A,,Clear,190,2013-08-24 20:53:00
2:53 PM,82.9,44.1,25,29.77,10.0,WSW,5.8,-,N/A,,Clear,250,2013-08-24 21:53:00
3:53 PM,84.9,44.1,24,29.75,10.0,West,6.9,-,N/A,,Clear,270,2013-08-24 22:53:00
4:53 PM,84.9,43.0,23,29.74,10.0,Calm,Calm,-,N/A,,Clear,0,2013-08-24 23:53:00
5:53 PM,84.9,44.1,24,29.72,10.0,NW,6.9,-,N/A,,Clear,310,2013-08-25 00:53:00
6:53 PM,84.0,42.1,23,29.75,10.0,WNW,5.8,-,N/A,,Clear,300,2013-08-25 01:53:00
7:53 PM,78.1,43.0,29,29.76,10.0,WNW,5.8,-,N/A,,Clear,300,2013-08-25 02:53:00
8:53 PM,77.0,55.0,47,29.78,10.0,Calm,Calm,-,0.01,,Mostly Cloudy,0,2013-08-25 03:53:00
9:53 PM,73.9,54.0,50,29.80,10.0,SE,4.6,-,N/A,,Clear,140,2013-08-25 04:53:00
10:53 PM,69.1,50.0,51,29.83,10.0,SSW,11.5,-,N/A,,Clear,200,2013-08-25 05:53:00
11:53 PM,69.1,50.0,51,29.87,10.0,South,13.8,-,N/A,,Partly Cloudy,180,2013-08-25 06:53:00